[[{"header":{"parameterUnit":"m.s-1","parameterCategory":1,"la1":30.2991,"la2":30.254,"lo1":-89.0895,"lo2":-89.0444,"dy":0.0017,"dx":0.0017,"nx":28,"ny":28,"refTime":"2023-09-11T21:00:00:Z","depth":0,"parameterNumber":2,"parameterNumberName":"U-component_of_WINDS"},"data":[0,0,0,0,0,0,0,0,0,0,0,0,0,0,0,0,0,0,0,0,0,0,0,0,0,0,0,0,0,0,0,0,0,0,0,0,0,0,0,0,0,0,0,0,0,0,0,0,0,0,0,0,0,0,0,0,0,0,0.0473,0.0473,0,0.0522,0.0523,0.0523,0.0549,0.0549,0.0549,0.0549,0.06,0.0602,0.0603,0,0,0,0,0,0,0,0,0,0,0,0,0,0.0401,0.0402,0.0472,0.0473,0.0474,0.0522,0.0523,0.0523,0.0549,0.0549,0.0549,0.0549,0.06,0.0601,0.0603,0,0,0,0,0,0,0,0,0,0,0,0,0,0.044,0.0403,0.0472,0.0492,0.0494,0.0522,0.0523,0.0523,0.0549,0.0549,0.0549,0.0549,0.0599,0.0601,0.0603,0.0615,0,0,0.061,0.061,0,0,0,0,0,0,0,0,0.0437,0.0442,0.0489,0.0491,0.0493,0.0529,0.0516,0.0554,0.0549,0.0528,0.0549,0.0549,0.0577,0.0581,0.059,0.0617,0.062,0.061,0.0611,0.0612,0.0612,0,0,0,0,0,0,0,0.0435,0.044,0.0492,0.0489,0.0492,0.0499,0.0505,0.0524,0.0552,0.053,0.0532,0.0537,0.0578,0.0588,0.0591,0.062,0.061,0.0611,0.0613,0.0613,0.0661,0.0661,0,0,0,0,0,0,0.0429,0.0438,0.0491,0.0494,0.0465,0.05,0.0506,0.0518,0.0551,0.0557,0.0537,0.0538,0.0584,0.0589,0.0593,0.061,0.0612,0.0614,0.0615,0.0661,0.0661,0.0661,0,0,0,0,0,0,0.0427,0.0433,0.0489,0.0466,0.0474,0.0501,0.0514,0.0519,0.0528,0.0557,0.0562,0.0542,0.0585,0.059,0.061,0.0612,0.0615,0.0616,0.0661,0.0661,0.0661,0.0643,0,0,0,0,0,0,0.0425,0.0432,0.0437,0.0466,0.0475,0.0504,0.0514,0.052,0.0532,0.0534,0.0563,0.0568,0.0585,0.0606,0.0612,0.0615,0.0618,0.0661,0.0661,0.0661,0.0643,0.0642,0.0641,0,0,0,0,0,0.0422,0.043,0.0437,0.0443,0.0481,0.0504,0.0509,0.0528,0.0532,0.0537,0.0555,0.0567,0.0611,0.0608,0.0614,0.0618,0.0661,0.0661,0.0661,0.0644,0.0642,0.0641,0,0,0,0,0,0,0.04,0.0434,0.0442,0.0459,0.0478,0.0508,0.0515,0.0526,0.0545,0.0546,0.0569,0.0576,0.0593,0.0608,0.0604,0.0632,0.0637,0.0638,0.0622,0.062,0.0619,0.0616,0.062,0,0,0,0,0,0.0397,0.0412,0.0441,0.0453,0.0462,0.0487,0.0497,0.0511,0.0532,0.054,0.056,0.058,0.0599,0.061,0.0629,0.0645,0.0652,0.0651,0.065,0.0649,0.065,0.066,0.066,0.0662,0.0662,0.0662,0,0,0.0391,0.0411,0.0419,0.0449,0.0466,0.0482,0.0493,0.051,0.0522,0.0543,0.0562,0.0578,0.0602,0.062,0.0629,0.0632,0.0651,0.0649,0.0648,0.065,0.066,0.066,0.066,0.0662,0.0662,0.0662,0,0,0.0388,0.0405,0.0417,0.0433,0.0458,0.0474,0.0477,0.0505,0.0516,0.0536,0.0552,0.0568,0.0599,0.0615,0.0628,0.0632,0.0644,0.0638,0.0632,0.0642,0.0642,0.0642,0.0644,0.0645,0.0638,0.0638,0.0638,0,0.0377,0.0401,0.0422,0.0437,0.045,0.047,0.0483,0.0498,0.0527,0.0536,0.0539,0.0579,0.0597,0.062,0.0621,0.063,0.0635,0.0634,0.064,0.0641,0.0641,0.0643,0.0644,0.0638,0.0638,0.0638,0.0638,0,0.0388,0.0404,0.0411,0.0439,0.0453,0.0467,0.049,0.0502,0.0514,0.053,0.055,0.0572,0.0596,0.0602,0.0614,0.0627,0.0629,0.0636,0.0642,0.064,0.0642,0.0643,0.0636,0.0637,0.0637,0.0637,0,0,0.0372,0.0411,0.0414,0.0427,0.0456,0.0469,0.0485,0.0508,0.0517,0.0537,0.0551,0.0577,0.0584,0.0599,0.0613,0.0622,0.0625,0.0628,0.0629,0.0627,0.0641,0.0635,0.0636,0.0632,0.0633,0.0633,0.0639,0,0.0374,0.0401,0.042,0.0441,0.0457,0.0476,0.049,0.0509,0.0525,0.0541,0.0559,0.0577,0.0585,0.0594,0.0603,0.0622,0.0628,0.0622,0.0646,0.0647,0.064,0.0637,0.0631,0.0635,0.064,0.064,0.064,0,0.0379,0.0398,0.0421,0.0449,0.0456,0.0468,0.0491,0.0506,0.0529,0.0539,0.0556,0.057,0.0588,0.0592,0.0617,0.0613,0.0624,0.0635,0.0636,0.0639,0.0643,0.0641,0.0637,0.0638,0.0642,0.0642,0.0641,0,0.0366,0.0397,0.0415,0.0426,0.0459,0.0467,0.0481,0.0504,0.0516,0.0537,0.0545,0.0567,0.0579,0.0596,0.0617,0.0618,0.064,0.0646,0.065,0.065,0.0654,0.0654,0.0653,0.0661,0.0661,0.0661,0.0661,0,0.0366,0.0379,0.041,0.042,0.0436,0.0458,0.0473,0.0489,0.0509,0.0524,0.0542,0.0555,0.0581,0.0598,0.0614,0.0633,0.0638,0.0648,0.0652,0.0647,0.0645,0.0654,0.0655,0.0661,0.0661,0.0661,0.0661,0,0.0354,0.0375,0.0395,0.0425,0.0433,0.0443,0.0468,0.048,0.0497,0.0515,0.0521,0.0547,0.0568,0.059,0.0619,0.063,0.0648,0.0654,0.064,0.0643,0.0646,0.0645,0.0651,0.0653,0.0659,0.0658,0.0658,0,0.0353,0.0363,0.0394,0.0405,0.0419,0.0436,0.0449,0.0472,0.0485,0.0512,0.052,0.0543,0.0562,0.0594,0.0616,0.0638,0.0645,0.0646,0.0649,0.0643,0.0646,0.0645,0.0647,0.0645,0.0645,0.0644,0.0644,0,0.0348,0.0359,0.0377,0.0399,0.0414,0.0432,0.0451,0.046,0.0486,0.05,0.0521,0.0536,0.0565,0.0587,0.0612,0.0627,0.0641,0.0643,0.0645,0.064,0.0632,0.0637,0.0638,0.0643,0.0643,0.0643,0.0643,0.0643,0.0342,0.0353,0.0376,0.0396,0.0413,0.043,0.0443,0.0461,0.0479,0.0505,0.0517,0.0539,0.0562,0.0597,0.0612,0.063,0.0633,0.0636,0.0637,0.0638,0.0637,0.0629,0.0634,0.0634,0.0634,0.0634,0.0634,0,0.0339,0.0356,0.0374,0.04,0.0416,0.0426,0.0448,0.0461,0.048,0.05,0.0519,0.0544,0.0565,0.0589,0.0613,0.0622,0.0629,0.0628,0.0627,0.0631,0.0632,0.0628,0.0622,0.0622,0.0622,0.0622,0.0622,0.0622,0.034,0.0358,0.0371,0.0398,0.0415,0.0436,0.0448,0.0464,0.0481,0.0508,0.0526,0.0541,0.0564,0.0589,0.0609,0.0616,0.0624,0.0621,0.0629,0.063,0.0631,0.0632,0.0628,0.0623,0.0623,0.0627,0.0627,0.0627]},{"header":{"parameterUnit":"m.s-1","parameterCategory":1,"la1":30.2991,"la2":30.254,"lo1":-89.0895,"lo2":-89.0444,"dy":0.0017,"dx":0.0017,"nx":28,"ny":28,"refTime":"2023-09-11T21:00:00:Z","depth":0,"parameterNumber":3,"parameterNumberName":"V-component_of_WINDS"},"data":[0,0,0,0,0,0,0,0,0,0,0,0,0,0,0,0,0,0,0,0,0,0,0,0,0,0,0,0,0,0,0,0,0,0,0,0,0,0,0,0,0,0,0,0,0,0,0,0,0,0,0,0,0,0,0,0,0,0,-1.4973,-1.4973,0,-1.4949,-1.4949,-1.4948,-1.4913,-1.4913,-1.4912,-1.4911,-1.4888,-1.4887,-1.4887,0,0,0,0,0,0,0,0,0,0,0,0,0,-1.499,-1.4989,-1.4973,-1.4973,-1.4972,-1.4949,-1.4949,-1.4948,-1.4913,-1.4913,-1.4912,-1.4911,-1.4888,-1.4887,-1.4887,0,0,0,0,0,0,0,0,0,0,0,0,0,-1.4976,-1.4989,-1.4973,-1.4952,-1.495,-1.4949,-1.4949,-1.4948,-1.4914,-1.4913,-1.4912,-1.4911,-1.4888,-1.4887,-1.4887,-1.4905,0,0,-1.4887,-1.4887,0,0,0,0,0,0,0,0,-1.4977,-1.4975,-1.4955,-1.4954,-1.4951,-1.4933,-1.4946,-1.4934,-1.4914,-1.4927,-1.4911,-1.491,-1.4903,-1.4902,-1.49,-1.4904,-1.4903,-1.4887,-1.4887,-1.4887,-1.4887,0,0,0,0,0,0,0,-1.4978,-1.4976,-1.4963,-1.4955,-1.4953,-1.4944,-1.4941,-1.4943,-1.4921,-1.4926,-1.4924,-1.4921,-1.4902,-1.49,-1.4899,-1.4903,-1.4887,-1.4887,-1.4887,-1.4887,-1.492,-1.4921,0,0,0,0,0,0,-1.4981,-1.4977,-1.4964,-1.4963,-1.4962,-1.4945,-1.4941,-1.494,-1.4921,-1.4917,-1.4922,-1.492,-1.49,-1.4899,-1.4898,-1.4917,-1.4887,-1.4887,-1.4887,-1.4919,-1.492,-1.4921,0,0,0,0,0,0,-1.4982,-1.4981,-1.4965,-1.4969,-1.4966,-1.4945,-1.4944,-1.494,-1.4937,-1.4918,-1.4913,-1.4924,-1.49,-1.4898,-1.4903,-1.4916,-1.4887,-1.4887,-1.4918,-1.492,-1.4921,-1.4956,0,0,0,0,0,0,-1.4983,-1.4981,-1.4987,-1.4969,-1.4966,-1.4971,-1.4945,-1.494,-1.4937,-1.4934,-1.4918,-1.4914,-1.4899,-1.4904,-1.4903,-1.4915,-1.4887,-1.4917,-1.4919,-1.492,-1.4954,-1.4959,-1.4963,0,0,0,0,0,-1.4983,-1.4998,-1.4988,-1.4987,-1.4974,-1.4972,-1.497,-1.4952,-1.4938,-1.4945,-1.4932,-1.4915,-1.4915,-1.4905,-1.4904,-1.4916,-1.4916,-1.4918,-1.492,-1.4952,-1.4958,-1.4963,0,0,0,0,0,0,-1.5019,-1.4996,-1.4984,-1.4993,-1.4985,-1.4966,-1.4973,-1.4958,-1.4954,-1.4951,-1.4928,-1.4925,-1.4933,-1.4925,-1.4914,-1.4932,-1.4913,-1.4915,-1.4937,-1.4942,-1.4947,-1.4948,-1.4887,0,0,0,0,0,-1.5027,-1.5027,-1.5008,-1.5018,-1.5014,-1.4995,-1.4993,-1.498,-1.497,-1.4966,-1.4954,-1.4945,-1.4943,-1.4942,-1.4939,-1.4952,-1.4948,-1.496,-1.4965,-1.4968,-1.497,-1.4977,-1.4982,-1.4928,-1.4928,-1.4928,0,0,-1.5046,-1.5033,-1.5035,-1.5025,-1.5017,-1.5017,-1.4992,-1.4994,-1.4994,-1.4966,-1.4971,-1.4962,-1.4951,-1.496,-1.4964,-1.4954,-1.4984,-1.4971,-1.4974,-1.4974,-1.498,-1.4985,-1.4989,-1.493,-1.493,-1.4929,0,0,-1.508,-1.507,-1.5078,-1.507,-1.5058,-1.5045,-1.5047,-1.503,-1.5023,-1.5027,-1.5006,-1.5006,-1.5003,-1.4996,-1.4992,-1.5023,-1.5008,-1.5023,-1.5046,-1.5053,-1.5057,-1.5061,-1.5072,-1.5076,-1.5025,-1.5025,-1.5025,0,-1.5104,-1.5104,-1.5084,-1.5087,-1.5083,-1.5058,-1.5066,-1.5059,-1.5047,-1.5045,-1.5034,-1.5029,-1.502,-1.5027,-1.5035,-1.5033,-1.5034,-1.5025,-1.5058,-1.5061,-1.5064,-1.5075,-1.5079,-1.5027,-1.5027,-1.5027,-1.5027,0,-1.5135,-1.5135,-1.5143,-1.5131,-1.5129,-1.5134,-1.5115,-1.5115,-1.5101,-1.5089,-1.5094,-1.5082,-1.5076,-1.5077,-1.5064,-1.5082,-1.5076,-1.5062,-1.5042,-1.5072,-1.5081,-1.5085,-1.503,-1.5029,-1.5029,-1.5028,0,0,-1.519,-1.5167,-1.517,-1.5165,-1.5149,-1.5149,-1.5154,-1.5148,-1.5148,-1.5141,-1.5144,-1.5142,-1.5128,-1.5124,-1.511,-1.5116,-1.5141,-1.51,-1.51,-1.5108,-1.5161,-1.5172,-1.5177,-1.5131,-1.5131,-1.5132,-1.5162,0,-1.5221,-1.5227,-1.5209,-1.522,-1.522,-1.5196,-1.52,-1.5191,-1.518,-1.5179,-1.5167,-1.5166,-1.5148,-1.5145,-1.515,-1.5137,-1.5151,-1.5135,-1.5133,-1.5134,-1.5137,-1.5181,-1.5193,-1.5222,-1.5165,-1.5166,-1.5166,0,-1.5258,-1.5252,-1.5263,-1.5247,-1.5246,-1.525,-1.5243,-1.5242,-1.5232,-1.5223,-1.5218,-1.5202,-1.5205,-1.5187,-1.5191,-1.518,-1.5179,-1.5172,-1.5173,-1.5172,-1.5152,-1.5182,-1.523,-1.5235,-1.5172,-1.5171,-1.5171,0,-1.5297,-1.5292,-1.5297,-1.5293,-1.5275,-1.5278,-1.5271,-1.5259,-1.5257,-1.5251,-1.5249,-1.5244,-1.5241,-1.5237,-1.522,-1.5208,-1.5226,-1.5206,-1.522,-1.522,-1.5225,-1.5224,-1.5274,-1.5224,-1.5224,-1.5224,-1.5224,0,-1.5333,-1.5341,-1.5315,-1.5318,-1.5326,-1.5305,-1.5314,-1.5304,-1.5294,-1.5295,-1.5274,-1.5276,-1.5253,-1.5252,-1.5239,-1.5245,-1.5244,-1.5237,-1.5233,-1.5239,-1.524,-1.5237,-1.5235,-1.5225,-1.5225,-1.5224,-1.5224,0,-1.5379,-1.5361,-1.5366,-1.5348,-1.5344,-1.535,-1.5335,-1.5338,-1.5325,-1.5327,-1.5327,-1.5307,-1.5305,-1.5288,-1.5282,-1.5273,-1.5284,-1.5276,-1.5287,-1.5285,-1.5299,-1.5298,-1.5349,-1.5354,-1.5301,-1.5302,-1.5302,0,-1.5403,-1.5408,-1.5391,-1.539,-1.5383,-1.5382,-1.538,-1.5359,-1.5358,-1.5346,-1.535,-1.5346,-1.5342,-1.534,-1.5326,-1.5322,-1.5314,-1.5332,-1.5313,-1.5318,-1.5314,-1.5314,-1.5314,-1.5336,-1.5336,-1.5337,-1.5337,0,-1.5448,-1.5439,-1.5436,-1.543,-1.5427,-1.5421,-1.5414,-1.5415,-1.5393,-1.5392,-1.5389,-1.5386,-1.538,-1.5377,-1.537,-1.5362,-1.5346,-1.5343,-1.5346,-1.5352,-1.5358,-1.5355,-1.5298,-1.5342,-1.5342,-1.5342,-1.5341,-1.5341,-1.5483,-1.5487,-1.5475,-1.5472,-1.5465,-1.5459,-1.546,-1.5448,-1.5445,-1.5439,-1.5427,-1.5427,-1.5416,-1.5405,-1.5398,-1.5398,-1.5388,-1.5392,-1.5393,-1.5395,-1.5398,-1.5358,-1.5396,-1.5396,-1.5396,-1.5396,-1.5396,0,-1.5527,-1.5518,-1.5516,-1.5506,-1.5504,-1.5489,-1.5481,-1.548,-1.548,-1.5471,-1.5467,-1.5465,-1.5461,-1.5447,-1.5442,-1.5444,-1.5436,-1.5443,-1.5443,-1.5441,-1.5406,-1.5404,-1.5449,-1.5449,-1.5449,-1.5449,-1.5449,-1.5449,-1.5549,-1.5554,-1.5544,-1.5545,-1.5537,-1.5536,-1.5532,-1.5526,-1.5519,-1.5517,-1.5514,-1.5505,-1.5494,-1.5488,-1.5484,-1.548,-1.5479,-1.5488,-1.5481,-1.5449,-1.5444,-1.5439,-1.5437,-1.5488,-1.5488,-1.5516,-1.5516,-1.5517]}]]